Regional Weather Roundup
Issued by NWS Northern Indiana

Home | Current Version | Previous Version | Graphics & Text | Print | Product List | Glossary On
Versions: 1 2 3 4 5 6 7 8 9 10 11 12 13 14 15 16 17 18 19 20 21 22 23 24 25 26 27 28 29 30 31 32 33 34 35 36 37 38 39 40 41 42 43 44 45 46 47 48 49 50
000
ASUS43 KIWX 301500
RWRIWX

KIWX WEATHER ROUNDUP
NATIONAL WEATHER SERVICE NORTHERN INDIANA
1100 AM EDT THU JUL 30 2015

NOTE: "FAIR" INDICATES FEW OR NO CLOUDS BELOW 12,000 FEET WITH NO
SIGNIFICANT WEATHER AND/OR OBSTRUCTIONS TO VISIBILITY.

* THESE STATIONS ARE NOT UNDER NWS QUALITY CONTROL. THEY ALSO MAY NOT
  REPORT WEATHER SUCH AS PRECIPITATION OR FOG.

INZ001>027-301600-
NORTHERN INDIANA

CITY           SKY/WX    TMP DP  RH WIND       PRES   REMARKS
GARY*          SUNNY     81  59  47 NW6       30.07S
SOUTH BEND     SUNNY     79  60  52 NW14      30.06R
ELKHART*       SUNNY     79  57  47 NW10      30.05S
GOSHEN         SUNNY     77  63  61 W12       30.05R
ANGOLA*        SUNNY     79  63  57 W10       30.03S
FORT WAYNE     SUNNY     77  61  57 W8        30.06S
PERU/GRISSOM   SUNNY     77  62  58 NW8       30.07S

$$
INZ028>050-301600-
CENTRAL INDIANA

CITY           SKY/WX    TMP DP  RH WIND       PRES   REMARKS
LAFAYETTE      SUNNY     77  63  61 NW9       30.08S
KOKOMO*        SUNNY     77  63  61 NW10      30.08S
MUNCIE*        SUNNY     76  62  62 NW7       30.08S
INDIANAPOLIS   MOSUNNY   78  60  53 NW7       30.09S

$$
MIZ043>046-050>051-056>058-064>065-071>073-077>080-301600-
SOUTHWEST LOWER MICHIGAN

CITY           SKY/WX    TMP DP  RH WIND       PRES   REMARKS
BATTLE CREEK   SUNNY     79  60  52 W13       30.02S
BENTON HARBOR  SUNNY     76  62  62 W14G21    30.04R
COLDWATER*     SUNNY     76  58  53 W10       30.02F
HILLSDALE*     SUNNY     78  61  56 W12       30.02S
HOLLAND        SUNNY     76  60  57 W13G21    30.02S
GRAND RAPIDS   SUNNY     79  57  46 W13       29.99S
KALAMAZOO      SUNNY     79  58  48 NW14      30.02S
STURGIS*       SUNNY     75  63  64 W10       30.03S
THREE RIVERS*  FAIR      79  59  50 NW14      30.03S

$$
OHZ001>008-015>018-024>025-301600-
NORTHWEST OHIO

CITY           SKY/WX    TMP DP  RH WIND       PRES   REMARKS
DEFIANCE       SUNNY     79  61  53 W6        30.03S
FINDLAY        SUNNY     78  63  59 W9        30.02S
TOLEDO EXPRESS SUNNY     77  62  59 W10       30.00F
TOLEDO METCALF SUNNY     80  60  50 W12       30.01S
LIMA           SUNNY     77  60  55 W9        30.05S

$$
AND FOR LAKE MICHIGAN COASTAL AND OPEN LAKE BUOY OBSERVATIONS

STATION/POSITION TEMP    WIND        PRES    VSBY  WAVE
                 AIR SEA DIR/SP/G                  HT/PER
                 (F)     (DEG/KT/KT) (MB)    (MI)  (FT/S)
CALUMET HARBOR    76     260/  5/ 10   N/A
MICHIGAN CITY     72     250/ 15/ 16   N/A
BURNS HARBOR      72     280/ 12/ 13 1018.3R
SAINT JOSEPH      73     260/  9/ 12 1017.9R
4 MI NW BRIDGMAN  72 73  310/ 12/ 14   N/A           4/ 5
MICHIGAN CITY     73 73  290/ 12/ 16   N/A           3/ 5

$$
&&


USA.gov is the U.S. government's official web portal to all federal, state and local government web resources and services.